Kecskemet, Hungary

6:12 AM CEST on April 24, 2017 (GMT +0200)
Kecskemet

Weather History for LHKE - October, 2013

Change the Weather History Date:

Tuesday, October 29, 2013

  Actual Average (LHBP) Record (LHBP)
Temperature  
Mean Temperature 60 °F -  
Max Temperature 69 °F 54 °F 69 °F (2004)
Min Temperature 51 °F 36 °F 14 °F (1997)
Degree Days  
Heating Degree Days 5    
Growing Degree Days 10 (Base 50)    
Moisture  
Dew Point 52 °F    
Average Humidity 76    
Maximum Humidity 94    
Minimum Humidity 56    
Precipitation  
Precipitation 0.00 in - - ()
Sea Level Pressure  
Sea Level Pressure 29.98 in    
Wind  
Wind Speed 5 mph ()    
Max Wind Speed 9 mph    
Max Gust Speed -    
Visibility 3.9 miles    
Events      
Averages and records for this station are not official NWS values.
T = Trace of Precipitation, MM = Missing Value Source: Averaged Metar Reports

Daily Weather History Graph

Daily Weather History Graph

Search for Another Location

Airport or City:

Trip Planner

Search our weather history database for the weather conditions in past years. The results will help you decide how hot, cold, wet, or windy it might be!

Date:

Astronomy

Oct. 29, 2013 Rise Set
Actual Time 6:19 AM CET 4:29 PM CET
Civil Twilight 5:47 AM CET 5:01 PM CET
Nautical Twilight 5:11 AM CET 5:36 PM CET
Astronomical Twilight 4:36 AM CET 6:12 PM CET
Moon 12:31 AM CET (10/29) 1:51 PM CET (10/29)
Length of Visible Light 11h 13m
Length of Day
10h 10m
Waning Crescent, 27% of the Moon is Illuminated
Oct 29
Waning Crescent
Nov 3
New
Nov 10
First Quarter
Nov 17
Full
Nov 25
Last Quarter

Hourly Weather History & Observations

Time (CET) Temp. Dew Point Humidity Pressure Visibility Wind Dir Wind Speed Gust Speed Precip Events Conditions
12:15 AM 59.0 °F 53.6 °F 82% 29.95 in - SSE 8.9 mph - N/A   Clear
12:45 AM 57.2 °F 53.6 °F 88% 29.95 in - SSE 6.7 mph - N/A   Clear
1:15 AM 57.2 °F 51.8 °F 82% 29.95 in - South 4.5 mph - N/A   Clear
1:45 AM 57.2 °F 53.6 °F 88% 29.95 in - South 6.7 mph - N/A   Clear
2:15 AM 57.2 °F 51.8 °F 82% 29.95 in - SSE 4.5 mph - N/A   Clear
2:45 AM 57.2 °F 51.8 °F 82% 29.92 in - South 6.7 mph - N/A   Clear
3:15 AM 57.2 °F 51.8 °F 82% 29.92 in - South 4.5 mph - N/A   Clear
3:45 AM 57.2 °F 50.0 °F 77% 29.92 in - SSE 4.5 mph - N/A   Clear
4:15 AM 57.2 °F 50.0 °F 77% 29.92 in - SSE 6.7 mph - N/A   Clear
4:45 AM 55.4 °F 50.0 °F 82% 29.92 in - SSE 6.7 mph - N/A   Clear
5:15 AM 53.6 °F 50.0 °F 88% 29.92 in - SSE 4.5 mph - N/A   Clear
5:45 AM - - N/A% - 6.2 mi South 4.5 mph - N/A   Clear
6:15 AM 51.8 °F 48.2 °F 88% 29.95 in - South 4.5 mph - N/A   Clear
6:45 AM 53.6 °F 48.2 °F 82% 29.95 in - SSE 4.5 mph - N/A   Clear
7:15 AM 55.4 °F 50.0 °F 82% 29.95 in - South 4.5 mph - N/A   Clear
7:45 AM 59.0 °F 50.0 °F 72% 29.95 in - SSW 4.5 mph - N/A   Clear
8:15 AM 62.6 °F 51.8 °F 68% 29.98 in - SW 6.7 mph - N/A   Clear
8:45 AM - - N/A% - - WSW 6.7 mph - N/A   Clear
9:15 AM 64.4 °F 51.8 °F 64% 29.98 in - WSW 6.7 mph - N/A   Clear
9:45 AM 66.2 °F 51.8 °F 60% 29.98 in - WSW 8.9 mph - N/A   Clear
10:15 AM 66.2 °F 53.6 °F 64% 29.98 in - WSW 8.9 mph - N/A   Clear
10:45 AM 66.2 °F 53.6 °F 64% 29.98 in 6.2 mi West 8.9 mph - N/A   Scattered Clouds
11:15 AM 68.0 °F 53.6 °F 60% 29.98 in 6.2 mi WSW 6.7 mph - N/A   Scattered Clouds
11:45 AM - - N/A% - 6.2 mi West 6.7 mph - N/A   Clear
12:15 PM 69.8 °F 55.4 °F 60% 29.98 in 6.2 mi West 6.7 mph - N/A   Scattered Clouds
12:45 PM 69.8 °F 53.6 °F 56% 29.98 in - West 8.9 mph - N/A   Clear
1:15 PM 69.8 °F 53.6 °F 56% 29.95 in - West 8.9 mph - N/A   Clear
1:45 PM 69.8 °F 53.6 °F 56% 29.95 in - WSW 6.7 mph - N/A   Clear
2:15 PM 69.8 °F 53.6 °F 56% 29.98 in - WNW 8.9 mph - N/A   Clear
2:45 PM - - N/A% - 1.9 mi WNW 4.5 mph - N/A   Clear
3:15 PM 69.8 °F 53.6 °F 56% 29.98 in - West 4.5 mph - N/A   Clear
3:45 PM 68.0 °F 53.6 °F 60% 29.98 in - West 6.7 mph - N/A   Clear
4:15 PM 66.2 °F 53.6 °F 64% 29.98 in - WNW 4.5 mph - N/A   Clear
4:45 PM 62.6 °F 53.6 °F 72% 30.01 in - NW 4.5 mph - N/A   Clear
5:15 PM 59.0 °F 51.8 °F 77% 30.01 in - WNW 4.5 mph - N/A   Clear
5:45 PM - - N/A% - 2.5 mi WNW 4.5 mph - N/A   Mostly Cloudy
6:15 PM 57.2 °F 51.8 °F 82% 30.01 in 5.0 mi WNW 2.2 mph - N/A   Unknown
6:45 PM 59.0 °F 51.8 °F 77% 30.01 in 3.1 mi West 2.2 mph - N/A   Mist
7:15 PM 57.2 °F 53.6 °F 88% 30.01 in 3.1 mi Calm Calm - N/A   Mist
7:45 PM 57.2 °F 53.6 °F 88% 30.01 in 3.1 mi Calm Calm - N/A   Mist
8:15 PM 55.4 °F 51.8 °F 88% 30.04 in 3.1 mi South 4.5 mph - N/A   Mist
8:45 PM - - N/A% - 2.5 mi WNW 4.5 mph - N/A   Mostly Cloudy
9:15 PM 53.6 °F 51.8 °F 94% 30.04 in 2.5 mi WNW 6.7 mph - N/A   Mist
9:45 PM 53.6 °F 51.8 °F 94% 30.04 in 3.1 mi WNW 8.9 mph - N/A   Mist
10:00 PM - - N/A% - 3.1 mi WNW 4.5 mph - N/A   Mist
10:15 PM 51.8 °F 48.2 °F 88% 30.06 in 3.7 mi WNW 6.7 mph - N/A   Unknown
10:45 PM 51.8 °F 48.2 °F 88% 30.06 in 5.0 mi NW 6.7 mph - N/A   Unknown
11:15 PM 51.8 °F 46.4 °F 82% 30.06 in - NW 4.5 mph - N/A   Clear
11:45 PM - - N/A% - 1.9 mi North - - N/A   Mist